This demonstration page uses our WeatherBlox Daily Observations layout. Learn more.

Left ArrowRight Arrow

Hourly Observations for November 16, 2018

Temp ( °F °C ) Dew Point ( °F °C ) Humidity (%) Winds ( mph kmh ) Pressure ( in mb ) Visibility ( mi km ) Precip ( " mm )
12:31 am 00:31 Cloudy 33 0.6 30 -1.1 89 89 WSW 14 22 30.09 1019 7 11 0.00 0.03
12:53 am 00:53 Cloudy 32 0 29 -1.7 88 88 WSW 13 20 30.04 1017 8 13 0.00 0.03
1:09 am 01:09 Cloudy 32 0 29 -1.7 88 88 WSW 8 13 30.09 1019 9 14 0.00 0.00
1:19 am 01:19 Cloudy 32 0 29 -1.7 88 88 WSW 10 17 30.09 1019 8 13 0.00 0.00
1:53 am 01:53 Cloudy 32 0 29 -1.7 88 88 SW 9 15 30.04 1017 9 14 0.00 0.00
2:53 am 02:53 Cloudy 32 0 28 -2.2 85 85 SW 8 13 30.04 1017 8 13 0.00 0.00
3:43 am 03:43 Cloudy 31 -0.6 28 -2.2 89 89 SW 10 17 30.06 1018 7 11 0.00 0.00
3:53 am 03:53 Cloudy 31 -0.6 28 -2.2 89 89 SW 12 19 30.04 1017 7 11 0.00 0.00
4:28 am 04:28 Cloudy 31 -0.6 27 -2.8 85 85 SW 9 15 30.06 1018 8 13 0.00 0.00
4:53 am 04:53 Cloudy 31 -0.6 28 -2.2 89 89 SW 9 15 30.03 1017 8 13 0.00 0.00
5:53 am 05:53 Cloudy 31 -0.6 27 -2.8 85 85 VRB 6 9 30.02 1017 9 14 0.00 0.00
6:53 am 06:53 Cloudy 32 0 28 -2.2 85 85 S 5 7 30.01 1016 10 16 0.00 0.00
7:53 am 07:53 Cloudy 33 0.6 28 -2.2 82 82 SSW 10 17 30.02 1017 9 14 0.00 0.00
8:53 am 08:53 Cloudy 33 0.6 29 -1.7 85 85 SSW 9 15 30.02 1017 9 14 0.00 0.00
9:53 am 09:53 Cloudy 35 1.7 30 -1.1 82 82 SW 10 17 30.03 1017 10 16 0.00 0.00
10:53 am 10:53 Cloudy 35 1.7 30 -1.1 82 82 SW 12 19 30.05 1018 10 16 0.00 0.00
11:53 am 11:53 Cloudy 36 2.2 31 -0.6 82 82 WSW 13 20 30.04 1017 10 16 0.00 0.00
12:53 pm 12:53 Cloudy 37 2.8 31 -0.6 79 79 WSW 7 11 30.04 1017 8 13 0.00 0.00
1:53 pm 13:53 Cloudy 38 3.3 32 0 79 79 WSW 10 17 30.05 1018 8 13 0.00 0.00
2:53 pm 14:53 Cloudy 39 3.9 33 0.6 79 79 W 10 17 30.07 1018 7 11 0.00 0.00
3:53 pm 15:53 Cloudy 39 3.9 34 1.1 82 82 WSW 8 13 30.08 1019 7 11 0.00 0.00
4:53 pm 16:53 Cloudy 39 3.9 34 1.1 82 82 WSW 10 17 30.11 1020 7 11 0.00 0.00
5:53 pm 17:53 Cloudy 39 3.9 34 1.1 82 82 WSW 8 13 30.13 1020 8 13 0.00 0.00
6:53 pm 18:53 Cloudy 39 3.9 33 0.6 79 79 W 7 11 30.15 1021 10 16 0.00 0.00
7:53 pm 19:53 Cloudy 39 3.9 34 1.1 82 82 WSW 6 9 30.17 1022 10 16 0.00 0.00
8:53 pm 20:53 Cloudy 39 3.9 34 1.1 82 82 SW 7 11 30.17 1022 9 14 0.00 0.00
9:53 pm 21:53 Cloudy 39 3.9 34 1.1 82 82 WSW 3 6 30.18 1022 9 14 0.00 0.00
10:53 pm 22:53 Cloudy 38 3.3 34 1.1 86 86 Calm 30.19 1022 9 14 0.00 0.00
11:53 pm 23:53 Cloudy 38 3.3 33 0.6 83 83 WNW 6 9 30.20 1023 10 16 0.00 0.00

Powered by AerisWeather